Year,Month,Day,Hour,Minute,Value (Times are PST for temperature in C)
2021,06,29,00,00,24.70
2021,06,29,00,01,24.70
2021,06,29,00,02,24.60
2021,06,29,00,03,24.60
2021,06,29,00,04,24.60
2021,06,29,00,05,24.60
2021,06,29,00,06,24.60
2021,06,29,00,07,24.60
2021,06,29,00,08,24.60
2021,06,29,00,09,24.50
2021,06,29,00,10,24.50
2021,06,29,00,11,24.50
2021,06,29,00,12,24.50
2021,06,29,00,13,24.50
2021,06,29,00,14,24.50
2021,06,29,00,15,24.50
2021,06,29,00,16,24.50
2021,06,29,00,17,24.40
2021,06,29,00,18,24.40
2021,06,29,00,19,24.40
2021,06,29,00,20,24.40
2021,06,29,00,21,24.40
2021,06,29,00,22,24.40
2021,06,29,00,23,24.30
2021,06,29,00,24,24.30
2021,06,29,00,25,24.30
2021,06,29,00,26,24.30
2021,06,29,00,27,24.30
2021,06,29,00,28,24.20
2021,06,29,00,29,24.20
2021,06,29,00,30,24.10
2021,06,29,00,31,24.10
2021,06,29,00,32,24.10
2021,06,29,00,33,24.00
2021,06,29,00,34,23.90
2021,06,29,00,35,23.90
2021,06,29,00,36,23.80
2021,06,29,00,37,23.80
2021,06,29,00,38,23.70
2021,06,29,00,39,23.70
2021,06,29,00,40,23.70
2021,06,29,00,41,23.60
2021,06,29,00,42,23.60
2021,06,29,00,43,23.50
2021,06,29,00,44,23.50
2021,06,29,00,45,23.40
2021,06,29,00,46,23.40
2021,06,29,00,47,23.30
2021,06,29,00,48,23.30
2021,06,29,00,49,23.30
2021,06,29,00,50,23.20
2021,06,29,00,51,23.20
2021,06,29,00,52,23.10
2021,06,29,00,53,23.00
2021,06,29,00,54,23.00
2021,06,29,00,55,22.90
2021,06,29,00,56,22.90
2021,06,29,00,57,22.80
2021,06,29,00,58,22.80
2021,06,29,00,59,22.80
2021,06,29,01,00,22.70
2021,06,29,01,01,22.60
2021,06,29,01,02,22.60
2021,06,29,01,03,22.50
2021,06,29,01,04,22.40
2021,06,29,01,05,22.40
2021,06,29,01,06,22.30
2021,06,29,01,07,22.30
2021,06,29,01,08,22.30
2021,06,29,01,09,22.20
2021,06,29,01,10,22.20
2021,06,29,01,11,22.20
2021,06,29,01,12,22.20
2021,06,29,01,13,22.10
2021,06,29,01,14,22.10
2021,06,29,01,15,22.10
2021,06,29,01,16,22.10
2021,06,29,01,17,22.10
2021,06,29,01,18,22.10
2021,06,29,01,19,22.00
2021,06,29,01,20,22.00
2021,06,29,01,21,22.00
2021,06,29,01,22,22.00
2021,06,29,01,23,22.00
2021,06,29,01,24,21.90
2021,06,29,01,25,21.90
2021,06,29,01,26,21.90
2021,06,29,01,27,21.90
2021,06,29,01,28,21.90
2021,06,29,01,29,21.90
2021,06,29,01,30,21.80
2021,06,29,01,31,21.80
2021,06,29,01,32,21.80
2021,06,29,01,33,21.80
2021,06,29,01,34,21.80
2021,06,29,01,35,21.80
2021,06,29,01,36,21.80
2021,06,29,01,37,21.80
2021,06,29,01,38,21.80
2021,06,29,01,39,21.80
2021,06,29,01,40,21.80
2021,06,29,01,41,21.80
2021,06,29,01,42,21.80
2021,06,29,01,43,21.80
2021,06,29,01,44,21.80
2021,06,29,01,45,21.80
2021,06,29,01,46,21.80
2021,06,29,01,47,21.80
2021,06,29,01,48,21.80
2021,06,29,01,49,21.80
2021,06,29,01,50,21.70
2021,06,29,01,51,21.70
2021,06,29,01,52,21.70
2021,06,29,01,53,21.60
2021,06,29,01,54,21.60
2021,06,29,01,55,21.60
2021,06,29,01,56,21.50
2021,06,29,01,57,21.50
2021,06,29,01,58,21.40
2021,06,29,01,59,21.40
2021,06,29,02,00,21.40
2021,06,29,02,01,21.40
2021,06,29,02,02,21.40
2021,06,29,02,03,21.40
2021,06,29,02,04,21.40
2021,06,29,02,05,21.40
2021,06,29,02,06,21.30
2021,06,29,02,07,21.30
2021,06,29,02,08,21.30
2021,06,29,02,09,21.30
2021,06,29,02,10,21.30
2021,06,29,02,11,21.30
2021,06,29,02,12,21.30
2021,06,29,02,13,21.30
2021,06,29,02,14,21.30
2021,06,29,02,15,21.30
2021,06,29,02,16,21.30
2021,06,29,02,17,21.30
2021,06,29,02,18,21.30
2021,06,29,02,19,21.30
2021,06,29,02,20,21.30
2021,06,29,02,21,21.30
2021,06,29,02,22,21.30
2021,06,29,02,23,21.30
2021,06,29,02,24,21.30
2021,06,29,02,25,21.30
2021,06,29,02,26,21.30
2021,06,29,02,27,21.30
2021,06,29,02,28,21.30
2021,06,29,02,29,21.30
2021,06,29,02,30,21.30
2021,06,29,02,31,21.30
2021,06,29,02,32,21.30
2021,06,29,02,33,21.30
2021,06,29,02,34,21.30
2021,06,29,02,35,21.40
2021,06,29,02,36,21.40
2021,06,29,02,37,21.40
2021,06,29,02,38,21.40
2021,06,29,02,39,21.40
2021,06,29,02,40,21.40
2021,06,29,02,41,21.40
2021,06,29,02,42,21.40
2021,06,29,02,43,21.40
2021,06,29,02,44,21.40
2021,06,29,02,45,21.40
2021,06,29,02,46,21.30
2021,06,29,02,47,21.30
2021,06,29,02,48,21.30
2021,06,29,02,49,21.20
2021,06,29,02,50,21.20
2021,06,29,02,51,21.20
2021,06,29,02,52,21.10
2021,06,29,02,53,21.10
2021,06,29,02,54,21.10
2021,06,29,02,55,21.00
2021,06,29,02,56,21.00
2021,06,29,02,57,20.90
2021,06,29,02,58,20.80
2021,06,29,02,59,20.80
2021,06,29,03,00,20.80
2021,06,29,03,01,20.70
2021,06,29,03,02,20.70
2021,06,29,03,03,20.70
2021,06,29,03,04,20.70
2021,06,29,03,05,20.70
2021,06,29,03,06,20.70
2021,06,29,03,07,20.80
2021,06,29,03,08,20.80
2021,06,29,03,09,20.80
2021,06,29,03,10,20.90
2021,06,29,03,11,20.90
2021,06,29,03,12,20.90
2021,06,29,03,13,20.90
2021,06,29,03,14,20.90
2021,06,29,03,15,20.90
2021,06,29,03,16,20.90
2021,06,29,03,17,20.90
2021,06,29,03,18,20.80
2021,06,29,03,19,20.80
2021,06,29,03,20,20.70
2021,06,29,03,21,20.70
2021,06,29,03,22,20.60
2021,06,29,03,23,20.60
2021,06,29,03,24,20.50
2021,06,29,03,25,20.50
2021,06,29,03,26,20.40
2021,06,29,03,27,20.40
2021,06,29,03,28,20.40
2021,06,29,03,29,20.30
2021,06,29,03,30,20.30
2021,06,29,03,31,20.30
2021,06,29,03,32,20.30
2021,06,29,03,33,20.20
2021,06,29,03,34,20.20
2021,06,29,03,35,20.10
2021,06,29,03,36,20.10
2021,06,29,03,37,20.10
2021,06,29,03,38,20.00
2021,06,29,03,39,19.90
2021,06,29,03,40,19.90
2021,06,29,03,41,19.90
2021,06,29,03,42,19.90
2021,06,29,03,43,19.80
2021,06,29,03,44,19.80
2021,06,29,03,45,19.70
2021,06,29,03,46,19.70
2021,06,29,03,47,19.70
2021,06,29,03,48,19.60
2021,06,29,03,49,19.60
2021,06,29,03,50,19.60
2021,06,29,03,51,19.60
2021,06,29,03,52,19.60
2021,06,29,03,53,19.50
2021,06,29,03,54,19.50
2021,06,29,03,55,19.50
2021,06,29,03,56,19.50
2021,06,29,03,57,19.50
2021,06,29,03,58,19.50
2021,06,29,03,59,19.50
2021,06,29,04,00,19.60
2021,06,29,04,01,19.60
2021,06,29,04,02,19.60
2021,06,29,04,03,19.60
2021,06,29,04,04,19.60
2021,06,29,04,05,19.60
2021,06,29,04,06,19.60
2021,06,29,04,07,19.50
2021,06,29,04,08,19.50
2021,06,29,04,09,19.50
2021,06,29,04,10,19.40
2021,06,29,04,11,19.40
2021,06,29,04,12,19.40
2021,06,29,04,13,19.40
2021,06,29,04,14,19.40
2021,06,29,04,15,19.30
2021,06,29,04,16,19.30
2021,06,29,04,17,19.40
2021,06,29,04,18,19.40
2021,06,29,04,19,19.40
2021,06,29,04,20,19.40
2021,06,29,04,21,19.40
2021,06,29,04,22,19.40
2021,06,29,04,23,19.40
2021,06,29,04,24,19.40
2021,06,29,04,25,19.40
2021,06,29,04,26,19.40
2021,06,29,04,27,19.40
2021,06,29,04,28,19.40
2021,06,29,04,29,19.40
2021,06,29,04,30,19.40
2021,06,29,04,31,19.40
2021,06,29,04,32,19.40
2021,06,29,04,33,19.40
2021,06,29,04,34,19.40
2021,06,29,04,35,19.40
2021,06,29,04,36,19.40
2021,06,29,04,37,19.50
2021,06,29,04,38,19.50
2021,06,29,04,39,19.50
2021,06,29,04,40,19.50
2021,06,29,04,41,19.60
2021,06,29,04,42,19.60
2021,06,29,04,43,19.60
2021,06,29,04,44,19.70
2021,06,29,04,45,19.70
2021,06,29,04,46,19.70
2021,06,29,04,47,19.80
2021,06,29,04,48,19.80
2021,06,29,04,49,19.80
2021,06,29,04,50,19.90
2021,06,29,04,51,19.90
2021,06,29,04,52,19.90
2021,06,29,04,53,20.00
2021,06,29,04,54,20.00
2021,06,29,04,55,20.10
2021,06,29,04,56,20.10
2021,06,29,04,57,20.20
2021,06,29,04,58,20.20
2021,06,29,04,59,20.20
2021,06,29,05,00,20.20
2021,06,29,05,01,20.20
2021,06,29,05,02,20.20
2021,06,29,05,03,20.20
2021,06,29,05,04,20.20
2021,06,29,05,05,20.20
2021,06,29,05,06,20.20
2021,06,29,05,07,20.20
2021,06,29,05,08,20.20
2021,06,29,05,09,20.10
2021,06,29,05,10,20.10
2021,06,29,05,11,20.10
2021,06,29,05,12,20.10
2021,06,29,05,13,20.10
2021,06,29,05,14,20.00
2021,06,29,05,15,20.00
2021,06,29,05,16,20.00
2021,06,29,05,17,20.00
2021,06,29,05,18,19.90
2021,06,29,05,19,19.90
2021,06,29,05,20,19.90
2021,06,29,05,21,19.90
2021,06,29,05,22,19.90
2021,06,29,05,23,19.90
2021,06,29,05,24,19.90
2021,06,29,05,25,19.80
2021,06,29,05,26,19.80
2021,06,29,05,27,19.80
2021,06,29,05,28,19.80
2021,06,29,05,29,19.80
2021,06,29,05,30,19.70
2021,06,29,05,31,19.70
2021,06,29,05,32,19.70
2021,06,29,05,33,19.70
2021,06,29,05,34,19.70
2021,06,29,05,35,19.70
2021,06,29,05,36,19.70
2021,06,29,05,37,19.80
2021,06,29,05,38,19.80
2021,06,29,05,39,19.80
2021,06,29,05,40,19.90
2021,06,29,05,41,19.90
2021,06,29,05,42,19.90
2021,06,29,05,43,20.00
2021,06,29,05,44,20.00
2021,06,29,05,45,20.10
2021,06,29,05,46,20.10
2021,06,29,05,47,20.10
2021,06,29,05,48,20.20
2021,06,29,05,49,20.20
2021,06,29,05,50,20.20
2021,06,29,05,51,20.30
2021,06,29,05,52,20.30
2021,06,29,05,53,20.30
2021,06,29,05,54,20.30
2021,06,29,05,55,20.30
2021,06,29,05,56,20.30
2021,06,29,05,57,20.40
2021,06,29,05,58,20.40
2021,06,29,05,59,20.40
2021,06,29,06,00,20.50
2021,06,29,06,01,20.50
2021,06,29,06,02,20.60
2021,06,29,06,03,20.70
2021,06,29,06,04,20.70
2021,06,29,06,05,20.70
2021,06,29,06,06,20.80
2021,06,29,06,07,20.80
2021,06,29,06,08,20.80
2021,06,29,06,09,20.80
2021,06,29,06,10,20.80
2021,06,29,06,11,20.80
2021,06,29,06,12,20.80
2021,06,29,06,13,20.70
2021,06,29,06,14,20.70
2021,06,29,06,15,20.60
2021,06,29,06,16,20.60
2021,06,29,06,17,20.60
2021,06,29,06,18,20.50
2021,06,29,06,19,20.50
2021,06,29,06,20,20.40
2021,06,29,06,21,20.30
2021,06,29,06,22,20.30
2021,06,29,06,23,20.20
2021,06,29,06,24,20.20
2021,06,29,06,25,20.10
2021,06,29,06,26,20.10
2021,06,29,06,27,20.10
2021,06,29,06,28,20.00
2021,06,29,06,29,20.00
2021,06,29,06,30,19.90
2021,06,29,06,31,19.90
2021,06,29,06,32,19.90
2021,06,29,06,33,19.90
2021,06,29,06,34,19.90
2021,06,29,06,35,19.90
2021,06,29,06,36,19.80
2021,06,29,06,37,19.80
2021,06,29,06,38,19.80
2021,06,29,06,39,19.80
2021,06,29,06,40,19.80
2021,06,29,06,41,19.80
2021,06,29,06,42,19.80
2021,06,29,06,43,19.80
2021,06,29,06,44,19.80
2021,06,29,06,45,19.80
2021,06,29,06,46,19.80
2021,06,29,06,47,19.90
2021,06,29,06,48,19.90
2021,06,29,06,49,19.90
2021,06,29,06,50,19.90
2021,06,29,06,51,20.00
2021,06,29,06,52,20.00
2021,06,29,06,53,20.10
2021,06,29,06,54,20.10
2021,06,29,06,55,20.10
2021,06,29,06,56,20.10
2021,06,29,06,57,20.10
2021,06,29,06,58,20.10
2021,06,29,06,59,20.10
2021,06,29,07,00,20.20
2021,06,29,07,01,20.20
2021,06,29,07,02,20.20
2021,06,29,07,03,20.20
2021,06,29,07,04,20.10
2021,06,29,07,05,20.10
2021,06,29,07,06,20.10
2021,06,29,07,07,20.10
2021,06,29,07,08,20.10
2021,06,29,07,09,20.10
2021,06,29,07,10,20.10
2021,06,29,07,11,20.10
2021,06,29,07,12,20.10
2021,06,29,07,13,20.10
2021,06,29,07,14,20.10
2021,06,29,07,15,20.10
2021,06,29,07,16,20.20
2021,06,29,07,17,20.20
2021,06,29,07,18,20.20
2021,06,29,07,19,20.20
2021,06,29,07,20,20.30
2021,06,29,07,21,20.30
2021,06,29,07,22,20.30
2021,06,29,07,23,20.40
2021,06,29,07,24,20.40
2021,06,29,07,25,20.40
2021,06,29,07,26,20.50
2021,06,29,07,27,20.50
2021,06,29,07,28,20.60
2021,06,29,07,29,20.60
2021,06,29,07,30,20.60
2021,06,29,07,31,20.70
2021,06,29,07,32,20.70
2021,06,29,07,33,20.70
2021,06,29,07,34,20.70
2021,06,29,07,35,20.70
2021,06,29,07,36,20.80
2021,06,29,07,37,20.80
2021,06,29,07,38,20.80
2021,06,29,07,39,20.80
2021,06,29,07,40,20.80
2021,06,29,07,41,20.90
2021,06,29,07,42,20.90
2021,06,29,07,43,21.00
2021,06,29,07,44,21.10
2021,06,29,07,45,21.10
2021,06,29,07,46,21.20
2021,06,29,07,47,21.30
2021,06,29,07,48,21.30
2021,06,29,07,49,21.40
2021,06,29,07,50,21.50
2021,06,29,07,51,21.60
2021,06,29,07,52,21.60
2021,06,29,07,53,21.70
2021,06,29,07,54,21.80
2021,06,29,07,55,21.80
2021,06,29,07,56,21.80
2021,06,29,07,57,21.90
2021,06,29,07,58,21.90
2021,06,29,07,59,21.90
2021,06,29,08,00,21.90
2021,06,29,08,01,21.90
2021,06,29,08,02,22.00
2021,06,29,08,03,22.00
2021,06,29,08,04,22.00
2021,06,29,08,05,22.00
2021,06,29,08,06,22.00
2021,06,29,08,07,21.90
2021,06,29,08,08,21.90
2021,06,29,08,09,21.90
2021,06,29,08,10,21.90
2021,06,29,08,11,22.00
2021,06,29,08,12,22.00
2021,06,29,08,13,22.00
2021,06,29,08,14,22.00
2021,06,29,08,15,22.00
2021,06,29,08,16,22.00
2021,06,29,08,17,22.00
2021,06,29,08,18,22.00
2021,06,29,08,19,22.00
2021,06,29,08,20,22.00
2021,06,29,08,21,22.00
2021,06,29,08,22,22.00
2021,06,29,08,23,22.00
2021,06,29,08,24,22.10
2021,06,29,08,25,22.20
2021,06,29,08,26,22.30
2021,06,29,08,27,22.30
2021,06,29,08,28,22.40
2021,06,29,08,29,22.40
2021,06,29,08,30,22.40
2021,06,29,08,31,22.40
2021,06,29,08,32,22.40
2021,06,29,08,33,22.30
2021,06,29,08,34,22.30
2021,06,29,08,35,22.20
2021,06,29,08,36,22.20
2021,06,29,08,37,22.20
2021,06,29,08,38,22.20
2021,06,29,08,39,22.20
2021,06,29,08,40,22.10
2021,06,29,08,41,22.00
2021,06,29,08,42,22.00
2021,06,29,08,43,22.00
2021,06,29,08,44,22.00
2021,06,29,08,45,22.00
2021,06,29,08,46,22.00
2021,06,29,08,47,22.00
2021,06,29,08,48,22.00
2021,06,29,08,49,22.00
2021,06,29,08,50,22.00
2021,06,29,08,51,22.00
2021,06,29,08,52,22.00
2021,06,29,08,53,21.90
2021,06,29,08,54,21.90
2021,06,29,08,55,21.90
2021,06,29,08,56,21.90
2021,06,29,08,57,21.90
2021,06,29,08,58,21.80
2021,06,29,08,59,21.80
2021,06,29,09,00,21.70
2021,06,29,09,01,21.70
2021,06,29,09,02,21.60
2021,06,29,09,03,21.60
2021,06,29,09,04,21.60
2021,06,29,09,05,21.60
2021,06,29,09,06,21.70
2021,06,29,09,07,21.70
2021,06,29,09,08,21.80
2021,06,29,09,09,21.80
2021,06,29,09,10,21.90
2021,06,29,09,11,21.90
2021,06,29,09,12,21.90
2021,06,29,09,13,22.00
2021,06,29,09,14,22.00
2021,06,29,09,15,22.10
2021,06,29,09,16,22.10
2021,06,29,09,17,22.10
2021,06,29,09,18,22.20
2021,06,29,09,19,22.20
2021,06,29,09,20,22.30
2021,06,29,09,21,22.30
2021,06,29,09,22,22.40
2021,06,29,09,23,22.50
2021,06,29,09,24,22.60
2021,06,29,09,25,22.70
2021,06,29,09,26,22.80
2021,06,29,09,27,22.90
2021,06,29,09,28,23.00
2021,06,29,09,29,23.10
2021,06,29,09,30,23.10
2021,06,29,09,31,23.20
2021,06,29,09,32,23.20
2021,06,29,09,33,23.30
2021,06,29,09,34,23.30
2021,06,29,09,35,23.40
2021,06,29,09,36,23.40
2021,06,29,09,37,23.50
2021,06,29,09,38,23.60
2021,06,29,09,39,23.60
2021,06,29,09,40,23.70
2021,06,29,09,41,23.70
2021,06,29,09,42,23.80
2021,06,29,09,43,23.90
2021,06,29,09,44,23.90
2021,06,29,09,45,24.00
2021,06,29,09,46,24.00
2021,06,29,09,47,24.10
2021,06,29,09,48,24.10
2021,06,29,09,49,24.10
2021,06,29,09,50,24.20
2021,06,29,09,51,24.20
2021,06,29,09,52,24.30
2021,06,29,09,53,24.40
2021,06,29,09,54,24.40
2021,06,29,09,55,24.50
2021,06,29,09,56,24.60
2021,06,29,09,57,24.80
2021,06,29,09,58,24.90
2021,06,29,09,59,24.90
2021,06,29,10,00,24.90
2021,06,29,10,01,24.90
2021,06,29,10,02,24.90
2021,06,29,10,03,24.90
2021,06,29,10,04,24.90
2021,06,29,10,05,25.00
2021,06,29,10,06,25.00
2021,06,29,10,07,25.10
2021,06,29,10,08,25.10
2021,06,29,10,09,25.10
2021,06,29,10,10,25.10
2021,06,29,10,11,25.10
2021,06,29,10,12,25.10
2021,06,29,10,13,25.10
2021,06,29,10,14,25.00
2021,06,29,10,15,24.90
2021,06,29,10,16,24.70
2021,06,29,10,17,24.50
2021,06,29,10,18,24.40
2021,06,29,10,19,24.30
2021,06,29,10,20,24.20
2021,06,29,10,21,24.20
2021,06,29,10,22,24.10
2021,06,29,10,23,24.10
2021,06,29,10,24,24.10
2021,06,29,10,25,24.10
2021,06,29,10,26,24.00
2021,06,29,10,27,23.90
2021,06,29,10,28,23.80
2021,06,29,10,29,23.60
2021,06,29,10,30,23.40
2021,06,29,10,31,23.10
2021,06,29,10,32,22.90
2021,06,29,10,33,22.80
2021,06,29,10,34,22.80
2021,06,29,10,35,22.70
2021,06,29,10,36,22.60
2021,06,29,10,37,22.50
2021,06,29,10,38,22.40
2021,06,29,10,39,22.30
2021,06,29,10,40,22.30
2021,06,29,10,41,22.20
2021,06,29,10,42,22.20
2021,06,29,10,43,22.00
2021,06,29,10,44,21.90
2021,06,29,10,45,21.90
2021,06,29,10,46,21.80
2021,06,29,10,47,21.80
2021,06,29,10,48,21.80
2021,06,29,10,49,21.80
2021,06,29,10,50,21.80
2021,06,29,10,51,21.80
2021,06,29,10,52,21.70
2021,06,29,10,53,21.70
2021,06,29,10,54,21.70
2021,06,29,10,55,21.60
2021,06,29,10,56,21.60
2021,06,29,10,57,21.50
2021,06,29,10,58,21.50
2021,06,29,10,59,21.50
2021,06,29,11,00,21.50
2021,06,29,11,01,21.50
2021,06,29,11,02,21.40
2021,06,29,11,03,21.20
2021,06,29,11,04,21.10
2021,06,29,11,05,20.90
2021,06,29,11,06,20.80
2021,06,29,11,07,20.80
2021,06,29,11,08,20.80
2021,06,29,11,09,20.90
2021,06,29,11,10,21.00
2021,06,29,11,11,21.10
2021,06,29,11,12,21.20
2021,06,29,11,13,21.30
2021,06,29,11,14,21.30
2021,06,29,11,15,21.40
2021,06,29,11,16,21.30
2021,06,29,11,17,21.30
2021,06,29,11,18,21.20
2021,06,29,11,19,21.20
2021,06,29,11,20,21.10
2021,06,29,11,21,21.20
2021,06,29,11,22,21.30
2021,06,29,11,23,21.40
2021,06,29,11,24,21.50
2021,06,29,11,25,21.60
2021,06,29,11,26,21.70
2021,06,29,11,27,21.60
2021,06,29,11,28,21.60
2021,06,29,11,29,21.60
2021,06,29,11,30,21.60
2021,06,29,11,31,21.60
2021,06,29,11,32,21.70
2021,06,29,11,33,21.70
2021,06,29,11,34,21.70
2021,06,29,11,35,21.80
2021,06,29,11,36,21.80
2021,06,29,11,37,21.80
2021,06,29,11,38,21.80
2021,06,29,11,39,21.80
2021,06,29,11,40,21.80
2021,06,29,11,41,21.80
2021,06,29,11,42,21.90
2021,06,29,11,43,22.00
2021,06,29,11,44,22.10
2021,06,29,11,45,22.20
2021,06,29,11,46,22.20
2021,06,29,11,47,22.30
2021,06,29,11,48,22.40
2021,06,29,11,49,22.40
2021,06,29,11,50,22.50
2021,06,29,11,51,22.60
2021,06,29,11,52,22.70
2021,06,29,11,53,22.80
2021,06,29,11,54,22.90
2021,06,29,11,55,23.00
2021,06,29,11,56,23.10
2021,06,29,11,57,23.20
2021,06,29,11,58,23.30
2021,06,29,11,59,23.40
2021,06,29,12,00,23.50
2021,06,29,12,01,23.60
2021,06,29,12,02,23.60
2021,06,29,12,03,23.60
2021,06,29,12,04,23.70
2021,06,29,12,05,23.70
2021,06,29,12,06,23.70
2021,06,29,12,07,23.80
2021,06,29,12,08,23.90
2021,06,29,12,09,23.90
2021,06,29,12,10,24.00
2021,06,29,12,11,24.10
2021,06,29,12,12,24.10
2021,06,29,12,13,24.10
2021,06,29,12,14,24.10
2021,06,29,12,15,24.10
2021,06,29,12,16,24.10
2021,06,29,12,17,24.20
2021,06,29,12,18,24.20
2021,06,29,12,19,24.30
2021,06,29,12,20,24.40
2021,06,29,12,21,24.40
2021,06,29,12,22,24.50
2021,06,29,12,23,24.60
2021,06,29,12,24,24.60
2021,06,29,12,25,24.70
2021,06,29,12,26,24.70
2021,06,29,12,27,24.80
2021,06,29,12,28,24.70
2021,06,29,12,29,24.70
2021,06,29,12,30,24.80
2021,06,29,12,31,24.80
2021,06,29,12,32,24.90
2021,06,29,12,33,25.00
2021,06,29,12,34,25.10
2021,06,29,12,35,25.20
2021,06,29,12,36,25.30
2021,06,29,12,37,25.40
2021,06,29,12,38,25.60
2021,06,29,12,39,25.70
2021,06,29,12,40,25.80
2021,06,29,12,41,26.00
2021,06,29,12,42,26.10
2021,06,29,12,43,26.20
2021,06,29,12,44,26.30
2021,06,29,12,45,26.40
2021,06,29,12,46,26.40
2021,06,29,12,47,26.50
2021,06,29,12,48,26.60
2021,06,29,12,49,26.70
2021,06,29,12,50,26.80
2021,06,29,12,51,26.90
2021,06,29,12,52,27.10
2021,06,29,12,53,27.20
2021,06,29,12,54,27.30
2021,06,29,12,55,27.40
2021,06,29,12,56,27.40
2021,06,29,12,57,27.50
2021,06,29,12,58,27.70
2021,06,29,12,59,27.80
2021,06,29,13,00,27.90
2021,06,29,13,01,28.10
2021,06,29,13,02,28.20
2021,06,29,13,03,28.30
2021,06,29,13,04,28.40
2021,06,29,13,05,28.40
2021,06,29,13,06,28.40
2021,06,29,13,07,28.50
2021,06,29,13,08,28.50
2021,06,29,13,09,28.50
2021,06,29,13,10,28.40
2021,06,29,13,11,28.40
2021,06,29,13,12,28.30
2021,06,29,13,13,28.30
2021,06,29,13,14,28.30
2021,06,29,13,15,28.30
2021,06,29,13,16,28.30
2021,06,29,13,17,28.30
2021,06,29,13,18,28.30
2021,06,29,13,19,28.30
2021,06,29,13,20,28.30
2021,06,29,13,21,28.30
2021,06,29,13,22,28.30
2021,06,29,13,23,28.30
2021,06,29,13,24,28.30
2021,06,29,13,25,28.30
2021,06,29,13,26,28.30
2021,06,29,13,27,28.30
2021,06,29,13,28,28.30
2021,06,29,13,29,28.40
2021,06,29,13,30,28.40
2021,06,29,13,31,28.40
2021,06,29,13,32,28.30
2021,06,29,13,33,28.30
2021,06,29,13,34,28.20
2021,06,29,13,35,28.20
2021,06,29,13,36,28.10
2021,06,29,13,37,28.10
2021,06,29,13,38,28.20
2021,06,29,13,39,28.40
2021,06,29,13,40,28.50
2021,06,29,13,41,28.60
2021,06,29,13,42,28.80
2021,06,29,13,43,28.90
2021,06,29,13,44,29.00
2021,06,29,13,45,29.10
2021,06,29,13,46,29.10
2021,06,29,13,47,29.20
2021,06,29,13,48,29.30
2021,06,29,13,49,29.30
2021,06,29,13,50,29.30
2021,06,29,13,51,29.30
2021,06,29,13,52,29.30
2021,06,29,13,53,29.30
2021,06,29,13,54,29.30
2021,06,29,13,55,29.30
2021,06,29,13,56,29.30
2021,06,29,13,57,29.40
2021,06,29,13,58,29.40
2021,06,29,13,59,29.50
2021,06,29,14,00,29.50
2021,06,29,14,01,29.60
2021,06,29,14,02,29.60
2021,06,29,14,03,29.60
2021,06,29,14,04,29.70
2021,06,29,14,05,29.70
2021,06,29,14,06,29.70
2021,06,29,14,07,29.70
2021,06,29,14,08,29.70
2021,06,29,14,09,29.70
2021,06,29,14,10,29.60
2021,06,29,14,11,29.50
2021,06,29,14,12,29.30
2021,06,29,14,13,29.30
2021,06,29,14,14,29.20
2021,06,29,14,15,29.10
2021,06,29,14,16,29.10
2021,06,29,14,17,29.00
2021,06,29,14,18,29.00
2021,06,29,14,19,29.00
2021,06,29,14,20,29.00
2021,06,29,14,21,29.10
2021,06,29,14,22,29.20
2021,06,29,14,23,29.20
2021,06,29,14,24,29.30
2021,06,29,14,25,29.40
2021,06,29,14,26,29.50
2021,06,29,14,27,29.60
2021,06,29,14,28,29.70
2021,06,29,14,29,29.90
2021,06,29,14,30,29.90
2021,06,29,14,31,29.80
2021,06,29,14,32,29.70
2021,06,29,14,33,29.60
2021,06,29,14,34,29.60
2021,06,29,14,35,29.50
2021,06,29,14,36,29.50
2021,06,29,14,37,29.50
2021,06,29,14,38,29.50
2021,06,29,14,39,29.60
2021,06,29,14,40,29.70
2021,06,29,14,41,29.80
2021,06,29,14,42,29.90
2021,06,29,14,43,30.00
2021,06,29,14,44,30.10
2021,06,29,14,45,30.20
2021,06,29,14,46,30.20
2021,06,29,14,47,30.20
2021,06,29,14,48,30.10
2021,06,29,14,49,30.10
2021,06,29,14,50,30.10
2021,06,29,14,51,30.20
2021,06,29,14,52,30.20
2021,06,29,14,53,30.20
2021,06,29,14,54,30.30
2021,06,29,14,55,30.30
2021,06,29,14,56,30.20
2021,06,29,14,57,30.20
2021,06,29,14,58,30.20
2021,06,29,14,59,30.20
2021,06,29,15,00,30.30
2021,06,29,15,01,30.30
2021,06,29,15,02,30.40
2021,06,29,15,03,30.40
2021,06,29,15,04,30.40
2021,06,29,15,05,30.50
2021,06,29,15,06,30.50
2021,06,29,15,07,30.50
2021,06,29,15,08,30.50
2021,06,29,15,09,30.50
2021,06,29,15,10,30.40
2021,06,29,15,11,30.40
2021,06,29,15,12,30.40
2021,06,29,15,13,30.50
2021,06,29,15,14,30.50
2021,06,29,15,15,30.40
2021,06,29,15,16,30.40
2021,06,29,15,17,30.30
2021,06,29,15,18,30.30
2021,06,29,15,19,30.30
2021,06,29,15,20,30.30
2021,06,29,15,21,30.30
2021,06,29,15,22,30.30
2021,06,29,15,23,30.30
2021,06,29,15,24,30.20
2021,06,29,15,25,30.20
2021,06,29,15,26,30.20
2021,06,29,15,27,30.10
2021,06,29,15,28,30.20
2021,06,29,15,29,30.20
2021,06,29,15,30,30.20
2021,06,29,15,31,30.20
2021,06,29,15,32,30.30
2021,06,29,15,33,30.30
2021,06,29,15,34,30.30
2021,06,29,15,35,30.40
2021,06,29,15,36,30.50
2021,06,29,15,37,30.50
2021,06,29,15,38,30.50
2021,06,29,15,39,30.50
2021,06,29,15,40,30.50
2021,06,29,15,41,30.50
2021,06,29,15,42,30.40
2021,06,29,15,43,30.30
2021,06,29,15,44,30.30
2021,06,29,15,45,30.20
2021,06,29,15,46,30.20
2021,06,29,15,47,30.20
2021,06,29,15,48,30.30
2021,06,29,15,49,30.30
2021,06,29,15,50,30.30
2021,06,29,15,51,30.30
2021,06,29,15,52,30.30
2021,06,29,15,53,30.20
2021,06,29,15,54,30.20
2021,06,29,15,55,30.10
2021,06,29,15,56,30.10
2021,06,29,15,57,30.10
2021,06,29,15,58,30.10
2021,06,29,15,59,30.10
2021,06,29,16,00,30.10
2021,06,29,16,01,30.10
2021,06,29,16,02,30.20
2021,06,29,16,03,30.30
2021,06,29,16,04,30.40
2021,06,29,16,05,30.40
2021,06,29,16,06,30.50
2021,06,29,16,07,30.50
2021,06,29,16,08,30.60
2021,06,29,16,09,30.70
2021,06,29,16,10,30.70
2021,06,29,16,11,30.70
2021,06,29,16,12,30.70
2021,06,29,16,13,30.70
2021,06,29,16,14,30.60
2021,06,29,16,15,30.60
2021,06,29,16,16,30.60
2021,06,29,16,17,30.60
2021,06,29,16,18,30.60
2021,06,29,16,19,30.60
2021,06,29,16,20,30.50
2021,06,29,16,21,30.50
2021,06,29,16,22,30.50
2021,06,29,16,23,30.50
2021,06,29,16,24,30.40
2021,06,29,16,25,30.40
2021,06,29,16,26,30.40
2021,06,29,16,27,30.30
2021,06,29,16,28,30.30
2021,06,29,16,29,30.30
2021,06,29,16,30,30.20
2021,06,29,16,31,30.20
2021,06,29,16,32,30.10
2021,06,29,16,33,30.00
2021,06,29,16,34,30.00
2021,06,29,16,35,30.00
2021,06,29,16,36,29.90
2021,06,29,16,37,29.80
2021,06,29,16,38,29.80
2021,06,29,16,39,29.80
2021,06,29,16,40,29.80
2021,06,29,16,41,29.80
2021,06,29,16,42,29.80
2021,06,29,16,43,29.80
2021,06,29,16,44,29.80
2021,06,29,16,45,29.90
2021,06,29,16,46,29.90
2021,06,29,16,47,30.00
2021,06,29,16,48,30.00
2021,06,29,16,49,30.00
2021,06,29,16,50,30.00
2021,06,29,16,51,30.00
2021,06,29,16,52,29.90
2021,06,29,16,53,29.80
2021,06,29,16,54,29.80
2021,06,29,16,55,29.70
2021,06,29,16,56,29.70
2021,06,29,16,57,29.70
2021,06,29,16,58,29.60
2021,06,29,16,59,29.60
2021,06,29,17,00,29.60
2021,06,29,17,01,29.60
2021,06,29,17,02,29.60
2021,06,29,17,03,29.60
2021,06,29,17,04,29.60
2021,06,29,17,05,29.70
2021,06,29,17,06,29.70
2021,06,29,17,07,29.70
2021,06,29,17,08,29.70
2021,06,29,17,09,29.70
2021,06,29,17,10,29.60
2021,06,29,17,11,29.60
2021,06,29,17,12,29.50
2021,06,29,17,13,29.40
2021,06,29,17,14,29.30
2021,06,29,17,15,29.30
2021,06,29,17,16,29.20
2021,06,29,17,17,29.10
2021,06,29,17,18,29.10
2021,06,29,17,19,29.00